When you browse on this site, cookies collect data to enhance your experience and personalize the content and advertising you see.
Visit our Privacy Policy to learn more. By continuing to use the site, you agree to this use of cookies and data.
  • In France
  • List of Countries
  • For 7 days
  • Water Temperature
  • Satellite Maps
  • Weather Map
  • Weather Widgets
  • user-avatar
    Login

    Hourly Weather Naftalan

    Today, 10 December, Monday

    Time Temperature Precipitation Wind Pressure Humidity
    00:00 +9°C° 0 mm 2 mps 768 mmHg 85%
    01:00 +9°C° 0 mm 2 mps 768 mmHg 85%
    02:00 +9°C° 0 mm 2 mps 767 mmHg 85%
    03:00 +9°C° 0 mm 2 mps 767 mmHg 86%
    04:00 +9°C° 0 mm 2 mps 767 mmHg 86%
    05:00 +9°C° 0 mm 2 mps 767 mmHg 87%
    06:00 +9°C° 0 mm 2 mps 767 mmHg 87%
    07:00 +9°C° 0.1 mm 2 mps 767 mmHg 85%
    08:00 +9°C° 0.1 mm 2 mps 767 mmHg 84%
    09:00 +9°C° 0 mm 2 mps 766 mmHg 82%
    10:00 +10°C° 0.1 mm 2 mps 766 mmHg 78%
    11:00 +12°C° 0.1 mm 2 mps 765 mmHg 75%
    12:00 +13°C° 0.1 mm 2 mps 765 mmHg 72%
    13:00 +13°C° 0 mm 2 mps 765 mmHg 71%
    14:00 +13°C° 0 mm 2 mps 764 mmHg 70%
    15:00 +13°C° 0 mm 2 mps 764 mmHg 71%
    16:00 +13°C° 0 mm 2 mps 764 mmHg 74%
    17:00 +12°C° 0 mm 1 mps 764 mmHg 78%
    18:00 +11°C° 0 mm 1 mps 764 mmHg 81%
    19:00 +10°C° 0 mm 2 mps 764 mmHg 81%
    20:00 +10°C° 0 mm 2 mps 764 mmHg 81%
    21:00 +10°C° 0 mm 2 mps 764 mmHg 81%
    22:00 +10°C° 0 mm 2 mps 764 mmHg 81%
    23:00 +10°C° 0 mm 2 mps 764 mmHg 82%

    Tomorrow, 11 December, Tuesday

    Time Temperature Precipitation Wind Pressure Humidity
    00:00 +10°C° 0 mm 2 mps 764 mmHg 82%
    01:00 +9°C° 0 mm 2 mps 764 mmHg 82%
    02:00 +9°C° 0 mm 2 mps 764 mmHg 83%
    03:00 +9°C° 0 mm 2 mps 763 mmHg 83%
    04:00 +9°C° 0 mm 2 mps 764 mmHg 82%
    05:00 +8°C° 0 mm 3 mps 764 mmHg 81%
    06:00 +8°C° 0 mm 3 mps 764 mmHg 79%
    07:00 +9°C° 0 mm 2 mps 764 mmHg 74%
    08:00 +10°C° 0 mm 2 mps 764 mmHg 68%
    09:00 +12°C° 0 mm 2 mps 764 mmHg 63%
    10:00 +13°C° 0 mm 2 mps 764 mmHg 57%
    11:00 +15°C° 0 mm 2 mps 763 mmHg 52%
    12:00 +16°C° 0 mm 2 mps 763 mmHg 46%
    13:00 +16°C° 0 mm 1 mps 762 mmHg 46%
    14:00 +16°C° 0 mm 1 mps 762 mmHg 46%
    15:00 +18°C° 0 mm 1 mps 761 mmHg 46%
    16:00 +15°C° 0 mm 1 mps 761 mmHg 52%
    17:00 +14°C° 0 mm 1 mps 761 mmHg 57%
    18:00 +13°C° 0 mm 1 mps 761 mmHg 63%
    19:00 +12°C° 0 mm 1 mps 761 mmHg 63%
    20:00 +12°C° 0 mm 2 mps 761 mmHg 64%
    21:00 +12°C° 0 mm 2 mps 761 mmHg 65%
    22:00 +12°C° 0 mm 2 mps 761 mmHg 65%
    23:00 +11°C° 0 mm 3 mps 761 mmHg 64%

    Day after tomorrow, 12 December, Wednesday

    Time Temperature Precipitation Wind Pressure Humidity
    00:00 +10°C° 0 mm 3 mps 760 mmHg 64%
    01:00 +10°C° 0 mm 3 mps 760 mmHg 60%
    02:00 +10°C° 0 mm 3 mps 760 mmHg 57%
    03:00 +10°C° 0 mm 4 mps 760 mmHg 54%
    04:00 +10°C° 0 mm 4 mps 761 mmHg 53%
    05:00 +10°C° 0 mm 4 mps 761 mmHg 53%
    06:00 +10°C° 0 mm 4 mps 761 mmHg 53%
    07:00 +10°C° 0 mm 5 mps 762 mmHg 50%
    08:00 +12°C° 0 mm 5 mps 762 mmHg 47%
    09:00 +13°C° 0 mm 6 mps 763 mmHg 44%
    10:00 +14°C° 0 mm 6 mps 763 mmHg 41%
    11:00 +16°C° 0 mm 5 mps 763 mmHg 38%
    12:00 +18°C° 0 mm 4 mps 762 mmHg 35%
    13:00 +17°C° 0 mm 4 mps 762 mmHg 39%
    14:00 +16°C° 0 mm 5 mps 762 mmHg 42%
    15:00 +16°C° 0 mm 5 mps 762 mmHg 45%
    16:00 +14°C° 0 mm 5 mps 762 mmHg 54%
    17:00 +13°C° 0 mm 5 mps 762 mmHg 63%
    18:00 +11°C° 0 mm 6 mps 762 mmHg 72%
    19:00 +12°C° 0 mm 5 mps 762 mmHg 76%
    20:00 +10°C° 0 mm 5 mps 762 mmHg 80%
    21:00 +10°C° 0 mm 5 mps 761 mmHg 83%
    22:00 +11°C° 0 mm 4 mps 761 mmHg 84%
    23:00 +11°C° 0 mm 4 mps 761 mmHg 85%

    13 December, Thursday

    Time Temperature Precipitation Wind Pressure Humidity
    00:00 +11°C° 0 mm 3 mps 761 mmHg 86%
    01:00 +11°C° 0 mm 3 mps 760 mmHg 85%
    02:00 +12°C° 0 mm 2 mps 760 mmHg 84%
    03:00 +12°C° 0 mm 2 mps 760 mmHg 83%
    04:00 +12°C° 0 mm 2 mps 760 mmHg 82%
    05:00 +11°C° 0 mm 3 mps 760 mmHg 82%
    06:00 +10°C° 0 mm 4 mps 760 mmHg 81%
    07:00 +11°C° 0 mm 4 mps 761 mmHg 80%
    08:00 +10°C° 0 mm 5 mps 761 mmHg 78%
    09:00 +10°C° 0 mm 5 mps 761 mmHg 77%
    10:00 +13°C° 0 mm 5 mps 761 mmHg 69%
    11:00 +14°C° 0 mm 5 mps 761 mmHg 61%
    12:00 +15°C° 0 mm 5 mps 761 mmHg 53%
    13:00 +16°C° 0 mm 5 mps 761 mmHg 50%
    14:00 +16°C° 0 mm 6 mps 762 mmHg 47%
    15:00 +16°C° 0 mm 6 mps 762 mmHg 45%
    16:00 +15°C° 0 mm 6 mps 763 mmHg 50%
    17:00 +14°C° 0 mm 6 mps 764 mmHg 55%
    18:00 +13°C° 0 mm 6 mps 765 mmHg 59%
    19:00 +11°C° 0 mm 6 mps 766 mmHg 62%
    20:00 +11°C° 0 mm 6 mps 767 mmHg 65%
    21:00 +10°C° 0 mm 7 mps 767 mmHg 67%
    22:00 +9°C° 0.1 mm 6 mps 768 mmHg 70%
    23:00 +9°C° 0.1 mm 5 mps 768 mmHg 72%

    14 December, Friday

    Time Temperature Precipitation Wind Pressure Humidity
    00:00 +9°C° 0.1 mm 5 mps 769 mmHg 74%
    01:00 +8°C° 0.2 mm 4 mps 769 mmHg 75%
    02:00 +8°C° 0.2 mm 4 mps 769 mmHg 77%
    03:00 +8°C° 0.2 mm 4 mps 770 mmHg 79%
    04:00 +8°C° 0 mm 4 mps 770 mmHg 79%
    05:00 +9°C° 0 mm 3 mps 771 mmHg 80%
    06:00 +9°C° 0 mm 3 mps 771 mmHg 80%
    07:00 +9°C° 0 mm 3 mps 772 mmHg 76%
    08:00 +10°C° 0 mm 3 mps 772 mmHg 73%
    09:00 +10°C° 0 mm 2 mps 772 mmHg 69%
    10:00 +11°C° 0 mm 3 mps 772 mmHg 64%
    11:00 +12°C° 0 mm 3 mps 772 mmHg 59%
    12:00 +12°C° 0 mm 3 mps 771 mmHg 54%
    13:00 +12°C° 0 mm 3 mps 771 mmHg 59%
    14:00 +12°C° 0 mm 4 mps 770 mmHg 63%
    15:00 +12°C° 0 mm 4 mps 770 mmHg 68%
    16:00 +10°C° 0 mm 5 mps 770 mmHg 71%
    17:00 +10°C° 0 mm 5 mps 770 mmHg 74%
    18:00 +10°C° 0 mm 5 mps 769 mmHg 78%
    19:00 +10°C° 0.1 mm 5 mps 769 mmHg 79%
    20:00 +10°C° 0.1 mm 5 mps 769 mmHg 81%
    21:00 +11°C° 0.1 mm 4 mps 769 mmHg 82%
    22:00 +11°C° 0.2 mm 4 mps 768 mmHg 82%
    23:00 +11°C° 0.2 mm 4 mps 768 mmHg 82%

    15 December, Saturday

    Time Temperature Precipitation Wind Pressure Humidity
    00:00 +11°C° 0.2 mm 3 mps 768 mmHg 82%
    01:00 +10°C° 0.1 mm 4 mps 768 mmHg 78%
    02:00 +10°C° 0.1 mm 4 mps 768 mmHg 75%
    03:00 +8°C° 0.1 mm 5 mps 769 mmHg 71%
    04:00 +8°C° 0 mm 5 mps 769 mmHg 65%
    05:00 +7°C° 0 mm 6 mps 769 mmHg 58%
    06:00 +5°C° 0 mm 7 mps 770 mmHg 52%
    07:00 +6°C° 0 mm 7 mps 770 mmHg 51%
    08:00 +6°C° 0 mm 7 mps 771 mmHg 49%
    09:00 +8°C° 0 mm 7 mps 771 mmHg 48%
    10:00 +9°C° 0 mm 6 mps 771 mmHg 46%
    11:00 +10°C° 0 mm 6 mps 771 mmHg 44%
    12:00 +11°C° 0 mm 6 mps 771 mmHg 42%
    13:00 +12°C° 0 mm 5 mps 771 mmHg 42%
    14:00 +12°C° 0 mm 5 mps 771 mmHg 41%
    15:00 +12°C° 0 mm 4 mps 771 mmHg 41%
    16:00 +11°C° 0 mm 4 mps 772 mmHg 46%
    17:00 +10°C° 0 mm 3 mps 773 mmHg 52%
    18:00 +9°C° 0 mm 3 mps 773 mmHg 57%
    19:00 +9°C° 0 mm 3 mps 773 mmHg 61%
    20:00 +9°C° 0 mm 3 mps 774 mmHg 64%
    21:00 +8°C° 0 mm 3 mps 774 mmHg 68%
    22:00 +8°C° 0 mm 2 mps 774 mmHg 69%
    23:00 +8°C° 0 mm 2 mps 774 mmHg 71%
    Show more